This is the latest recevied weather packets stored in our database for station/object DB0MW-13. If no packets are shown the sender has not sent any weather packets the latest 10 day(s).
| Time | Temp. | Humidity | Pressure | Rain* | Wind** | Luminosity | Snow |
|---|---|---|---|---|---|---|---|
| 1777380601 | 23.33° C | 24% | 1019.5 hPa | 0 mm | - | - | - |
| 1777380001 | 23.33° C | 25% | 1019.4 hPa | 0 mm | - | - | - |
| 1777379101 | 22.78° C | 25% | 1019.4 hPa | 0 mm | - | - | - |
| 1777378801 | 22.78° C | 26% | 1019.4 hPa | 0 mm | - | - | - |
| 1777378501 | 22.78° C | 26% | 1019.5 hPa | 0 mm | - | - | - |
| 1777378201 | 22.22° C | 27% | 1019.5 hPa | 0 mm | - | - | - |
| 1777377901 | 22.22° C | 27% | 1019.5 hPa | 0 mm | - | - | - |
| 1777376100 | 21.67° C | 30% | 1019.7 hPa | 0 mm | - | - | - |
| 1777375500 | 21.67° C | 30% | 1019.7 hPa | 0 mm | - | - | - |
| 1777374300 | 21.11° C | 30% | 1019.8 hPa | 0 mm | - | - | - |
| 1777372500 | 20.56° C | 33% | 1020.2 hPa | 0 mm | - | - | - |
| 1777372201 | 20° C | 33% | 1020 hPa | 0 mm | - | - | - |
| 1777371901 | 20° C | 33% | 1020.2 hPa | 0 mm | - | - | - |
| 1777371601 | 20° C | 33% | 1020 hPa | 0 mm | - | - | - |
| 1777371001 | 19.44° C | 33% | 1019.9 hPa | 0 mm | - | - | - |
| 1777370401 | 19.44° C | 34% | 1020 hPa | 0 mm | - | - | - |
| 1777370101 | 18.89° C | 35% | 1020.1 hPa | 0 mm | - | - | - |
| 1777369801 | 18.89° C | 36% | 1020.2 hPa | 0 mm | - | - | - |
| 1777369501 | 18.89° C | 36% | 1020.4 hPa | 0 mm | - | - | - |
| 1777369201 | 18.33° C | 36% | 1020.3 hPa | 0 mm | - | - | - |
| 1777368901 | 18.33° C | 37% | 1020.3 hPa | 0 mm | - | - | - |
| 1777368601 | 18.33° C | 37% | 1020.2 hPa | 0 mm | - | - | - |
| 1777368301 | 18.33° C | 37% | 1020.3 hPa | 0 mm | - | - | - |
| 1777367401 | 17.22° C | 40% | 1020.2 hPa | 0 mm | - | - | - |
| 1777367100 | 17.22° C | 40% | 1020.4 hPa | 0 mm | - | - | - |
* Rain latest hour (hover to see other rain measurements)
** Current wind speed in m/s (hover to see current wind gust speed)